When you browse on this site, cookies collect data to enhance your experience and personalize the content and advertising you see.
Visit our Privacy Policy to learn more. By continuing to use the site, you agree to this use of cookies and data.
  • In Latvia
  • List of Countries
  • For 7 days
  • Water Temperature
  • Satellite Maps
  • Weather Map
  • Weather Widgets
  • user-avatar
    Login

    Hourly Weather Kaprun

    Today, 25 June, Tuesday

    Time Temperature Precipitation Wind Pressure Humidity
    00:00 +9°C° 0 mm 2 mps 603 mmHg 85%
    01:00 +9°C° 0 mm 2 mps 603 mmHg 84%
    02:00 +9°C° 0 mm 2 mps 603 mmHg 84%
    03:00 +9°C° 0 mm 2 mps 602 mmHg 84%
    04:00 +9°C° 0 mm 2 mps 602 mmHg 84%
    05:00 +12°C° 0 mm 1 mps 603 mmHg 77%
    06:00 +14°C° 0 mm 1 mps 604 mmHg 70%
    07:00 +18°C° 0 mm 1 mps 606 mmHg 60%
    08:00 +20°C° 0 mm 1 mps 606 mmHg 52%
    09:00 +22°C° 0 mm 1 mps 607 mmHg 44%
    10:00 +23°C° 0 mm 1 mps 608 mmHg 36%
    11:00 +24°C° 0 mm 1 mps 608 mmHg 33%
    12:00 +25°C° 0 mm 1 mps 609 mmHg 31%
    13:00 +26°C° 0 mm 2 mps 609 mmHg 29%
    14:00 +25°C° 0 mm 2 mps 609 mmHg 31%
    15:00 +25°C° 0 mm 2 mps 609 mmHg 33%
    16:00 +25°C° 0 mm 2 mps 608 mmHg 35%
    17:00 +23°C° 0 mm 2 mps 608 mmHg 46%
    18:00 +21°C° 0 mm 1 mps 607 mmHg 58%
    19:00 +19°C° 0 mm 1 mps 607 mmHg 70%
    20:00 +16°C° 0 mm 1 mps 606 mmHg 71%
    21:00 +15°C° 0 mm 1 mps 606 mmHg 73%
    22:00 +13°C° 0 mm 1 mps 605 mmHg 75%
    23:00 +12°C° 0 mm 1 mps 605 mmHg 70%

    Tomorrow, 26 June, Wednesday

    Time Temperature Precipitation Wind Pressure Humidity
    00:00 +12°C° 0 mm 1 mps 605 mmHg 66%
    01:00 +12°C° 0 mm 1 mps 605 mmHg 61%
    02:00 +12°C° 0 mm 1 mps 605 mmHg 59%
    03:00 +12°C° 0 mm 1 mps 605 mmHg 56%
    04:00 +12°C° 0 mm 1 mps 605 mmHg 54%
    05:00 +15°C° 0 mm 1 mps 606 mmHg 51%
    06:00 +18°C° 0 mm 1 mps 607 mmHg 49%
    07:00 +20°C° 0 mm 1 mps 609 mmHg 47%
    08:00 +22°C° 0 mm 1 mps 609 mmHg 42%
    09:00 +24°C° 0 mm 1 mps 610 mmHg 37%
    10:00 +25°C° 0 mm 2 mps 610 mmHg 32%
    11:00 +26°C° 0 mm 2 mps 610 mmHg 30%
    12:00 +26°C° 0 mm 2 mps 611 mmHg 27%
    13:00 +27°C° 0 mm 2 mps 611 mmHg 25%
    14:00 +27°C° 0 mm 2 mps 610 mmHg 27%
    15:00 +26°C° 0 mm 2 mps 610 mmHg 29%
    16:00 +26°C° 0 mm 2 mps 610 mmHg 30%
    17:00 +24°C° 0 mm 2 mps 609 mmHg 42%
    18:00 +21°C° 0 mm 2 mps 608 mmHg 54%
    19:00 +21°C° 0 mm 1 mps 608 mmHg 66%
    20:00 +19°C° 0 mm 1 mps 607 mmHg 67%
    21:00 +16°C° 0 mm 1 mps 607 mmHg 68%
    22:00 +14°C° 0 mm 1 mps 606 mmHg 70%
    23:00 +14°C° 0 mm 1 mps 606 mmHg 67%

    Day after tomorrow, 27 June, Thursday

    Time Temperature Precipitation Wind Pressure Humidity
    00:00 +14°C° 0 mm 1 mps 606 mmHg 64%
    01:00 +13°C° 0 mm 1 mps 605 mmHg 62%
    02:00 +13°C° 0 mm 1 mps 605 mmHg 61%
    03:00 +13°C° 0 mm 1 mps 605 mmHg 59%
    04:00 +13°C° 0 mm 1 mps 604 mmHg 58%
    05:00 +15°C° 0 mm 1 mps 605 mmHg 55%
    06:00 +19°C° 0 mm 1 mps 606 mmHg 52%
    07:00 +21°C° 0 mm 1 mps 607 mmHg 49%
    08:00 +22°C° 0 mm 1 mps 608 mmHg 44%
    09:00 +23°C° 0 mm 2 mps 608 mmHg 39%
    10:00 +25°C° 0 mm 2 mps 608 mmHg 34%
    11:00 +25°C° 0 mm 3 mps 608 mmHg 36%
    12:00 +25°C° 0 mm 3 mps 608 mmHg 37%
    13:00 +25°C° 0 mm 4 mps 608 mmHg 39%
    14:00 +25°C° 0.1 mm 4 mps 608 mmHg 43%
    15:00 +23°C° 0.1 mm 4 mps 607 mmHg 47%
    16:00 +22°C° 0.1 mm 4 mps 607 mmHg 51%
    17:00 +21°C° 0.8 mm 3 mps 606 mmHg 62%
    18:00 +19°C° 0.8 mm 2 mps 605 mmHg 73%
    19:00 +17°C° 0.8 mm 2 mps 604 mmHg 84%
    20:00 +15°C° 0.1 mm 2 mps 604 mmHg 87%
    21:00 +14°C° 0.1 mm 2 mps 603 mmHg 90%
    22:00 +12°C° 0.1 mm 2 mps 603 mmHg 93%
    23:00 +12°C° 0 mm 2 mps 603 mmHg 94%

    28 June, Friday

    Time Temperature Precipitation Wind Pressure Humidity
    00:00 +12°C° 0 mm 1 mps 603 mmHg 95%
    01:00 +12°C° 0 mm 1 mps 603 mmHg 96%
    02:00 +11°C° 0.1 mm 1 mps 603 mmHg 97%
    03:00 +11°C° 0.1 mm 1 mps 603 mmHg 97%
    04:00 +11°C° 0.1 mm 1 mps 602 mmHg 97%
    05:00 +12°C° 0 mm 2 mps 603 mmHg 96%
    06:00 +13°C° 0 mm 2 mps 603 mmHg 94%
    07:00 +14°C° 0 mm 2 mps 603 mmHg 92%
    08:00 +15°C° 0 mm 2 mps 604 mmHg 80%
    09:00 +16°C° 0 mm 2 mps 604 mmHg 68%
    10:00 +18°C° 0 mm 2 mps 605 mmHg 56%
    11:00 +19°C° 0 mm 3 mps 605 mmHg 50%
    12:00 +19°C° 0 mm 3 mps 605 mmHg 44%
    13:00 +20°C° 0 mm 3 mps 605 mmHg 38%
    14:00 +20°C° 0 mm 3 mps 605 mmHg 40%
    15:00 +20°C° 0 mm 3 mps 605 mmHg 42%
    16:00 +20°C° 0 mm 3 mps 604 mmHg 43%
    17:00 +18°C° 0 mm 3 mps 604 mmHg 52%
    18:00 +16°C° 0 mm 2 mps 604 mmHg 61%
    19:00 +15°C° 0 mm 2 mps 603 mmHg 70%
    20:00 +13°C° 0 mm 2 mps 603 mmHg 75%
    21:00 +10°C° 0 mm 2 mps 602 mmHg 81%
    22:00 +9°C° 0 mm 1 mps 601 mmHg 87%
    23:00 +9°C° 0 mm 1 mps 601 mmHg 85%

    29 June, Saturday

    Time Temperature Precipitation Wind Pressure Humidity
    00:00 +8°C° 0 mm 1 mps 601 mmHg 83%
    01:00 +8°C° 0 mm 1 mps 601 mmHg 82%
    02:00 +8°C° 0 mm 1 mps 601 mmHg 79%
    03:00 +7°C° 0 mm 1 mps 600 mmHg 76%
    04:00 +7°C° 0 mm 1 mps 600 mmHg 73%
    05:00 +10°C° 0 mm 1 mps 601 mmHg 65%
    06:00 +12°C° 0 mm 1 mps 602 mmHg 57%
    07:00 +13°C° 0 mm 0 mps 603 mmHg 49%
    08:00 +16°C° 0 mm 1 mps 604 mmHg 44%
    09:00 +19°C° 0 mm 1 mps 605 mmHg 39%
    10:00 +21°C° 0 mm 1 mps 605 mmHg 34%
    11:00 +21°C° 0 mm 1 mps 606 mmHg 32%
    12:00 +22°C° 0 mm 1 mps 606 mmHg 30%
    13:00 +23°C° 0 mm 1 mps 606 mmHg 28%
    14:00 +23°C° 0 mm 1 mps 606 mmHg 29%
    15:00 +23°C° 0 mm 1 mps 606 mmHg 31%
    16:00 +23°C° 0 mm 2 mps 605 mmHg 32%
    17:00 +21°C° 0 mm 1 mps 605 mmHg 45%
    18:00 +20°C° 0 mm 1 mps 604 mmHg 58%
    19:00 +18°C° 0 mm 1 mps 604 mmHg 70%
    20:00 +15°C° 0 mm 1 mps 603 mmHg 75%
    21:00 +14°C° 0 mm 1 mps 603 mmHg 79%
    22:00 +12°C° 0 mm 2 mps 602 mmHg 84%
    23:00 +12°C° 0 mm 2 mps 602 mmHg 85%

    30 June, Sunday

    Time Temperature Precipitation Wind Pressure Humidity
    00:00 +13°C° 0 mm 2 mps 602 mmHg 86%
    01:00 +13°C° 0 mm 2 mps 602 mmHg 86%
    02:00 +12°C° 0 mm 2 mps 602 mmHg 81%
    03:00 +11°C° 0 mm 1 mps 601 mmHg 77%
    04:00 +11°C° 0 mm 1 mps 601 mmHg 72%
    05:00 +13°C° 0 mm 1 mps 602 mmHg 64%
    06:00 +15°C° 0 mm 0 mps 603 mmHg 57%
    07:00 +17°C° 0 mm 0 mps 604 mmHg 50%
    08:00 +19°C° 0 mm 0 mps 605 mmHg 44%
    09:00 +22°C° 0 mm 1 mps 606 mmHg 38%
    10:00 +24°C° 0 mm 1 mps 606 mmHg 33%
    11:00 +25°C° 0 mm 1 mps 606 mmHg 32%
    12:00 +25°C° 0 mm 1 mps 606 mmHg 31%
    13:00 +26°C° 0 mm 2 mps 606 mmHg 30%
    14:00 +25°C° 0 mm 2 mps 606 mmHg 33%
    15:00 +25°C° 0 mm 2 mps 606 mmHg 36%
    16:00 +25°C° 0 mm 2 mps 606 mmHg 39%
    17:00 +23°C° 0.1 mm 2 mps 605 mmHg 49%
    18:00 +20°C° 0.1 mm 2 mps 604 mmHg 58%
    19:00 +20°C° 0.1 mm 1 mps 604 mmHg 68%
    20:00 +18°C° 0 mm 1 mps 603 mmHg 70%
    21:00 +15°C° 0 mm 1 mps 603 mmHg 71%
    22:00 +13°C° 0 mm 1 mps 602 mmHg 72%
    23:00 +13°C° 0 mm 1 mps 602 mmHg 71%
    Show more